Starlink 31388

operational
NORAD ID: 59565 Int'l Des: 2024-076 Owner: SPXS Country: US Constellation: starlink
LEOCIRCULAR

About Starlink 31388

Description loading...

Live Position

Loading 3D Globe...

Upcoming Passes

Altitude History

Altitude vs Time

uPlot chart will show altitude changes over time

Two-Line Element Set

1 59565U 24076B 25260.04600790 -.00000786 00000-0 -19068-4 0 9991
2 59565 42.9999 269.8811 0000845 275.4490 84.6265 15.27571100 79946
Epoch: Sep 17, 2025 • Age: 22 hours

Current Status

Altitude 487.0 km
Velocity 7.62 km/s
Sub-Earth Point -19.67°S, 98.98°W
Launch Date Apr 23, 2024
Age 1.4 years
Type internet

Technical Details

Classification Payload
Mass 730.00 kg
Dry Mass 700.00 kg
Total Mass 730.00 kg
Length 0.30 m
Diameter 4.10 m
Span 29.00 m
Shape Box + pan
Manufacturer SPXS
Bus Type Starlink V2M
Phase Status In Orbit
Owner/State SPXS/US

Large Constellations

Loading constellations...